This is the latest recevied weather packets stored in our database for station/object N0FDH. If no packets are shown the sender has not sent any weather packets the latest 10 day(s).
| Time | Temp. | Humidity | Pressure | Rain* | Wind** | Luminosity | Snow |
|---|---|---|---|---|---|---|---|
| 1777828631 | 18.33° C | 39% | 1005.6 hPa | 0 mm | - | 601 W/m² | - |
| 1777828329 | 18.33° C | 43% | 1005.5 hPa | 0 mm | - | 667 W/m² | - |
| 1777828026 | 18.33° C | 42% | 1005.5 hPa | 0 mm | - | 669 W/m² | - |
| 1777827723 | 18.33° C | 42% | 1005.5 hPa | 0 mm | - | 658 W/m² | - |
| 1777827420 | 18.33° C | 42% | 1005.7 hPa | 0 mm | - | 659 W/m² | - |
| 1777827116 | 18.33° C | 44% | 1005.8 hPa | 0 mm | - | 658 W/m² | - |
| 1777826812 | 18.33° C | 41% | 1005.5 hPa | 0 mm | - | 646 W/m² | - |
| 1777826510 | 18.33° C | 39% | 1005.5 hPa | 0 mm | - | 424 W/m² | - |
| 1777826206 | 17.78° C | 42% | 1005.7 hPa | 0 mm | - | 624 W/m² | - |
| 1777825904 | 17.78° C | 42% | 1005.7 hPa | 0 mm | - | 616 W/m² | - |
| 1777825601 | 17.22° C | 42% | 1005.7 hPa | 0 mm | - | 608 W/m² | - |
| 1777825299 | 17.22° C | 42% | 1005.8 hPa | 0 mm | - | 599 W/m² | - |
| 1777824996 | 17.22° C | 44% | 1005.7 hPa | 0 mm | - | 588 W/m² | - |
| 1777824691 | 17.22° C | 43% | 1005.7 hPa | 0 mm | - | 582 W/m² | - |
| 1777824389 | 17.22° C | 46% | 1005.6 hPa | 0 mm | - | 573 W/m² | - |
| 1777824084 | 17.22° C | 46% | 1005.7 hPa | 0 mm | - | 564 W/m² | - |
| 1777823781 | 17.22° C | 43% | 1005.6 hPa | 0 mm | - | 554 W/m² | - |
| 1777823478 | 16.67° C | 47% | 1005.7 hPa | 0 mm | - | 543 W/m² | - |
| 1777823175 | 16.11° C | 44% | 1005.5 hPa | 0 mm | - | 532 W/m² | - |
| 1777822873 | 16.11° C | 45% | 1005.6 hPa | 0 mm | - | 522 W/m² | - |
| 1777822571 | 16.11° C | 47% | 1005.5 hPa | 0 mm | - | 510 W/m² | - |
| 1777822268 | 16.11° C | 44% | 1005.6 hPa | 0 mm | - | 500 W/m² | - |
| 1777821965 | 16.11° C | 45% | 1005.6 hPa | 0 mm | - | 490 W/m² | - |
| 1777821663 | 16.11° C | 45% | 1005.5 hPa | 0 mm | - | 479 W/m² | - |
| 1777821361 | 16.11° C | 51% | 1005.5 hPa | 0 mm | - | 466 W/m² | - |
* Rain latest hour (hover to see other rain measurements)
** Current wind speed in m/s (hover to see current wind gust speed)